Powrót do katalogu

STARLINK-32161

AktywnyŁącznośćVLEO
NORAD 60593·PAYLOAD·🇺🇸 United States

Wystrzelony Aug 20, 2024 z Cape Canaveral Space Force Station

Loading…

Następne Przeloty (najbliższe 24 godziny)

TLE

ŚwieżeSource: CelesTrak SupGP

Epoka: Sep 15, 2026, 03:18 UTC

1 60593C 24150L   26258.13798611  .00058087  00000+0  17164-2 0  2580
2 60593  53.1566 142.8506 0001300  84.7350   5.1331 15.34357706    13

Śledź STARLINK-32161 w czasie rzeczywistym z AllMySat

Download on the App Store